User: anonymous   Login
Location: Unspecified
(0.0000°N, 0.0000°E)
Time: 16:12:32
(UTC+00:00)
Language:

STARS - Orbit

View from above orbital plane
View from above orbital plane
View from above satellite
View from above satellite

Ground track
Ground track

The orbit data is extracted from the following two-line orbital elements,

1 33498U 09002G   20293.18901221  .00000207  00000-0  35401-4 0  9994
2 33498  98.2443 161.5946 0011916  45.8748 314.3440 14.79195543632216
Epoch (UTC): 19 October 2020 04:32:10
Eccentricity: 0.0011916
inclination: 98.2443°
perigee height: 623 km
apogee height: 640 km
right ascension of ascending node: 161.5946°
argument of perigee: 45.8748°
revolutions per day: 14.79195543
mean anomaly at epoch: 314.3440°
orbit number at epoch: 63221

The dashed part of the orbit path shows where the satellite is in the earth's shadow,  

DLR